Regional Weather Roundup
Issued by NWS

Home | Current Version | Previous Version | Graphics & Text | Print | Product List | Glossary Off
Versions: 1 2 3 4 5 6 7 8 9 10 11 12 13 14 15 16 17 18 19 20 21 22 23 24 25 26 27 28 29 30 31 32 33 34 35 36 37 38 39 40 41 42 43 44 45 46 47 48 49 50

875
ASUS43 KDTX 221501
RWRMI
MICHIGAN HOURLY REGIONAL WEATHER ROUNDUP
NATIONAL WEATHER SERVICE DETROIT/PONTIAC MI
1100 AM EDT WED MAR 22 2017

NOTE: "FAIR" INDICATES FEW OR NO CLOUDS BELOW 12,000 FEET WITH NO
SIGNIFICANT WEATHER AND/OR OBSTRUCTION TO VISIBILITY.

MIZ047>049-052>055-059>063-066>070-074>076-081>083-221600-
SOUTHEAST LOWER MICHIGAN

CITY           SKY/WX    TMP DP  RH WIND       PRES   REMARKS
ADRIAN         SUNNY     26  11  52 NE13      30.55R WCI  15
ALMA           SUNNY     25   8  47 NE7       30.60R WCI  17
ANN ARBOR      SUNNY     27   9  46 N12       30.55R WCI  17
BAD AXE        PTSUNNY   21   7  55 N14G21    30.58R WCI   8
CARO           PTSUNNY   24  12  62 N12G21    30.59R WCI  12
DETROIT CITY   MOSUNNY   27   8  44 N16       30.55R WCI  15
DETROIT        MOSUNNY   30  10  43 N13       30.56R WCI  20
FLINT          SUNNY     26   9  48 NE14G22   30.56R WCI  14
GROSSE ILE     SUNNY     28  11  49 NE15      30.55R WCI  16
HILLSDALE      SUNNY     25   9  50 N9        30.52R WCI  15
HOWELL         SUNNY     25   6  45 N8        30.55R WCI  16

CITY           SKY/WX    TMP DP  RH WIND       PRES   REMARKS
JACKSON        SUNNY     26   7  44 N7        30.55R WCI  18
LAMBERTVILLE   SUNNY     29  11  46 N9        30.55R WCI  21
LANSING        SUNNY     27   7  42 N9        30.57R WCI  18
LAPEER         CLOUDY    26  10  50 NE8       30.56R WCI  17
MASON          SUNNY     26  10  52 NE8G17    30.56R WCI  17
MONROE         SUNNY     28  13  53 NE9       30.55R WCI  19
MT. CLEMENS    MOSUNNY   28  11  49 NE15G22   30.54R WCI  16
PONTIAC        MOSUNNY   25   8  48 N13       30.52R WCI  14
PORT HOPE        N/A     23  11  60 N13G21    30.58R WCI  11
PORT HURON     PTSUNNY   25   7  46 N12G23    30.56R WCI  14
TRI CITIES     SUNNY     24   7  48 N13       30.60R WCI  12
MIDLAND        FAIR      25   3  38 N6        30.60R WCI  18
TROY           SUNNY     28   7  40 NE12G18   30.57R WCI  18
SAGINAW HB     SUNNY     27   5  39 N14       30.60R WCI  15
$$
MIZ043>046-050>051-056>058-064>065-071>073-077>080-221600-
SOUTHWEST LOWER MICHIGAN

CITY           SKY/WX    TMP DP  RH WIND       PRES   REMARKS
BATTLE CREEK   SUNNY     27   9  46 NE10      30.56R WCI  17
BENTON HARBOR  SUNNY     27   9  46 E8        30.59R WCI  19
BIG RAPIDS     SUNNY     24   6  46 E6        30.57R WCI  17
COLDWATER      SUNNY     26   8  46 E9G16     30.55R WCI  17
FREMONT        FAIR      26   8  45 E6        30.58R WCI  20
HOLLAND        SUNNY     28  10  46 E10       30.59R WCI  19
GRAND RAPIDS   MOSUNNY   26   9  48 E6        30.58R WCI  19
IONIA          FAIR      26   9  49 N10       30.57R WCI  16
KALAMAZOO      SUNNY     27   7  42 E8        30.56S WCI  19
LUDINGTON      SUNNY     27  11  52 E9        30.59S WCI  18
MARSHALL       SUNNY     26   9  47 N5        30.55R WCI  21
MOUNT PLEASANT SUNNY     23   6  47 N9        30.58S WCI  13
MUSKEGON       MOSUNNY   29   9  43 NE10      30.60R WCI  20
SOUTH HAVEN    SUNNY     27  11  50 E5        30.59R WCI  22
$$
MIZ016>042-221600-
NORTHERN LOWER MICHIGAN

CITY           SKY/WX    TMP DP  RH WIND       PRES   REMARKS
ALPENA         SUNNY     22   4  46 N8        30.60R WCI  12
BEAVER ISLAND  MOSUNNY   23   8  53 NE5       30.61S WCI  16
BELLAIRE       SUNNY     21   2  43 N6        30.63R WCI  14
CADILLAC       SUNNY     21   5  49 E6        30.52F WCI  14
CHARLEVOIX     SUNNY     21   6  53 N7        30.65R WCI  13
FRANKFORT      MOSUNNY   25   9  51 CALM      30.61S
GAYLORD        SUNNY     19  -1  41 VRB6      30.55R WCI  11
GRAYLING       SUNNY     20   0  41 CALM      30.57R
HARBOR SPRINGS SUNNY     21   3  45 N7        30.61R WCI  12
HOUGHTON LAKE  SUNNY     20   0  41 N5        30.56S WCI  13
MANISTEE       SUNNY     25   9  50 NE9       30.61R WCI  15
OSCODA         SUNNY     24   3  40 N6        30.59R WCI  17
PELLSTON       SUNNY     21   2  43 NW6       30.61S WCI  13
ROGERS CITY    SUNNY     21   3  45 NW9       30.62R WCI  10
TRAVERSE CITY  MOSUNNY   22   7  52 NE9       30.61R WCI  12
$$
MIZ007>008-015-221600-
EASTERN UPPER MICHIGAN

CITY           SKY/WX    TMP DP  RH WIND       PRES   REMARKS
KINROSS        SUNNY     17   3  54 N8        30.60R WCI   7
MACKINAC ISLAN SUNNY     18   2  49 N5        30.61R WCI  11
NEWBERRY       SUNNY     20   6  54 N7        30.58S WCI  11
S. S. MARIE    SUNNY     19   2  47 NW10      30.60R WCI   7
MUNISING         N/A     25  11  55 NE8       30.60S WCI  16
$$
MIZ004>006-011>014-085-221600-
CENTRAL UPPER MICHIGAN

CITY           SKY/WX    TMP DP  RH WIND       PRES   REMARKS
MANISTIQUE     PTSUNNY   21   9  58 CALM      30.61S
ESCANABA       CLOUDY    23  10  57 N7        30.62S WCI  15
MENOMINEE        N/A     24  12  60 MISG        N/A
SAWYER-GWINN   SUNNY     21   9  58 NE6       30.56S WCI  14
$$
MIZ001>003-009>011-084-221600-
WESTERN UPPER MICHIGAN

CITY           SKY/WX    TMP DP  RH WIND       PRES   REMARKS
IRON MOUNTAIN  SUNNY     21   6  52 VRB6      30.57F WCI  13
HOUGHTON       SUNNY     20   5  52 S3        30.57S
COPPER HARBOR    N/A     23   7  50 N5        30.61R WCI  17
IRONWOOD       SUNNY     21   8  57 SE7       30.56F WCI  12
$$

ABBREVIATIONS USED IN REMARKS
   TC - TEMPERATURE IN CELSIUS
  WCI - WIND CHILL INDEX
   HX - HEAT INDEX
  VSB - VISIBILITY





USA.gov is the U.S. government's official web portal to all federal, state and local government web resources and services.